Location: Antoign�
(47.0844°N, 0.1131°W)
Time: 16:33:38
(UTC+00:00)

SL-16 R/B - Pass Details

Date: 03 March 2021
Orbit: 843 x 845 km, 71.0° (Epoch: 20 April)

Event Time Altitude Azimuth Distance (km) Brightness Sun altitude
Rises 19:30:03 0° 229° (SW) 3,391 5.9 -18.0°
Reaches altitude 10° 19:32:38 10° 237° (WSW) 2,461 5.3 -18.4°
Maximum altitude 19:37:56 40° 306° (NW) 1,224 3.5 -19.3°
Drops below altitude 10° 19:43:17 10° 16° (NNE) 2,476 4.6 -20.2°
Sets 19:45:54 0° 24° (NNE) 3,416 5.3 -20.6°
